owner,sensor,date,latitude,longitude,air_pressure(mBar),qcFlag 
TABS,ioos:station:wmo:42046:1,2011-03-01T00:00:00Z,27.8903,-94.0367,1016.62,11111222 
TABS,ioos:station:wmo:42046:1,2011-03-01T00:30:00Z,27.8903,-94.0367,1016.87,11111222 
TABS,ioos:station:wmo:42046:1,2011-03-01T01:00:00Z,27.8903,-94.0367,1017.16,11111222 
TABS,ioos:station:wmo:42046:1,2011-03-01T01:30:00Z,27.8903,-94.0367,1017.77,11111222 
TABS,ioos:station:wmo:42046:1,2011-03-01T02:00:00Z,27.8903,-94.0367,1017.85,11111222 
TABS,ioos:station:wmo:42046:1,2011-03-01T02:30:00Z,27.8903,-94.0367,1018.34,11111222 
TABS,ioos:station:wmo:42046:1,2011-03-01T03:00:00Z,27.8903,-94.0367,1018.92,11111222 
TABS,ioos:station:wmo:42046:1,2011-03-01T03:30:00Z,27.8903,-94.0367,1019.26,11111222 
TABS,ioos:station:wmo:42046:1,2011-03-01T04:00:00Z,27.8903,-94.0367,1019.49,11111222 
TABS,ioos:station:wmo:42046:1,2011-03-01T04:30:00Z,27.8903,-94.0367,1019.45,11111222 
TABS,ioos:station:wmo:42046:1,2011-03-01T05:00:00Z,27.8903,-94.0367,1019.81,11111222 
TABS,ioos:station:wmo:42046:1,2011-03-01T05:30:00Z,27.8903,-94.0367,1019.85,11111222 
TABS,ioos:station:wmo:42046:1,2011-03-01T06:00:00Z,27.8903,-94.0367,1020.0,11111222 
TABS,ioos:station:wmo:42046:1,2011-03-01T06:30:00Z,27.8903,-94.0367,1019.76,11111222 
TABS,ioos:station:wmo:42046:1,2011-03-01T07:00:00Z,27.8903,-94.0367,1020.21,11111222 
TABS,ioos:station:wmo:42046:1,2011-03-01T07:30:00Z,27.8903,-94.0367,1019.55,11111222 
TABS,ioos:station:wmo:42046:1,2011-03-01T08:00:00Z,27.8903,-94.0367,1020.18,11111222 
TABS,ioos:station:wmo:42046:1,2011-03-01T08:30:00Z,27.8903,-94.0367,1020.04,11111222 
TABS,ioos:station:wmo:42046:1,2011-03-01T09:00:00Z,27.8903,-94.0367,1020.02,11111222 
TABS,ioos:station:wmo:42046:1,2011-03-01T09:30:00Z,27.8903,-94.0367,1020.21,11111222 
TABS,ioos:station:wmo:42046:1,2011-03-01T10:00:00Z,27.8903,-94.0367,1020.21,11111222 
TABS,ioos:station:wmo:42046:1,2011-03-01T10:30:00Z,27.8903,-94.0367,1020.38,11111222 
TABS,ioos:station:wmo:42046:1,2011-03-01T11:00:00Z,27.8903,-94.0367,1020.62,11111222 
TABS,ioos:station:wmo:42046:1,2011-03-01T11:30:00Z,27.8903,-94.0367,1021.06,11111222 
TABS,ioos:station:wmo:42046:1,2011-03-01T12:00:00Z,27.8903,-94.0367,1021.3,11111222 
TABS,ioos:station:wmo:42046:1,2011-03-01T12:30:00Z,27.8903,-94.0367,1021.54,11111222 
TABS,ioos:station:wmo:42046:1,2011-03-01T13:00:00Z,27.8903,-94.0367,1021.9,11111222 
TABS,ioos:station:wmo:42046:1,2011-03-01T13:30:00Z,27.8903,-94.0367,1022.42,11111222 
TABS,ioos:station:wmo:42046:1,2011-03-01T14:00:00Z,27.8903,-94.0367,1022.98,11111222 
TABS,ioos:station:wmo:42046:1,2011-03-01T14:30:00Z,27.8903,-94.0367,1023.26,11111222 
TABS,ioos:station:wmo:42046:1,2011-03-01T15:00:00Z,27.8903,-94.0367,1023.47,11111222 
TABS,ioos:station:wmo:42046:1,2011-03-01T15:30:00Z,27.8903,-94.0367,1023.95,11111222 
TABS,ioos:station:wmo:42046:1,2011-03-01T16:00:00Z,27.8903,-94.0367,1023.74,11111222 
TABS,ioos:station:wmo:42046:1,2011-03-01T16:30:00Z,27.8903,-94.0367,1023.91,11111222 
TABS,ioos:station:wmo:42046:1,2011-03-01T17:00:00Z,27.8903,-94.0367,1023.87,11111222 
TABS,ioos:station:wmo:42046:1,2011-03-01T17:30:00Z,27.8903,-94.0367,1023.46,11111222 
TABS,ioos:station:wmo:42046:1,2011-03-01T18:00:00Z,27.8903,-94.0367,1023.31,11111222 
TABS,ioos:station:wmo:42046:1,2011-03-01T18:30:00Z,27.8903,-94.0367,1022.99,11111222 
TABS,ioos:station:wmo:42046:1,2011-03-01T19:00:00Z,27.8903,-94.0367,1022.66,11111222 
TABS,ioos:station:wmo:42046:1,2011-03-01T19:30:00Z,27.8903,-94.0367,1022.36,11111222 
TABS,ioos:station:wmo:42046:1,2011-03-01T20:00:00Z,27.8903,-94.0367,1022.22,11111222 
TABS,ioos:station:wmo:42046:1,2011-03-01T20:30:00Z,27.8903,-94.0367,1021.93,11111222 
TABS,ioos:station:wmo:42046:1,2011-03-01T21:00:00Z,27.8903,-94.0367,1021.66,11111222 
TABS,ioos:station:wmo:42046:1,2011-03-01T21:30:00Z,27.8903,-94.0367,1021.5,11111222 
TABS,ioos:station:wmo:42046:1,2011-03-01T22:00:00Z,27.8903,-94.0367,1021.47,11111222 
TABS,ioos:station:wmo:42046:1,2011-03-01T22:30:00Z,27.8903,-94.0367,1021.33,11111222 
TABS,ioos:station:wmo:42046:1,2011-03-01T23:00:00Z,27.8903,-94.0367,1021.4,11111222 
TABS,ioos:station:wmo:42046:1,2011-03-01T23:30:00Z,27.8903,-94.0367,1021.5,11111222 
TABS,ioos:station:wmo:42046:1,2011-03-02T00:00:00Z,27.8903,-94.0367,1021.54,11111222 
TABS,ioos:station:wmo:42046:1,2011-03-02T00:30:00Z,27.8903,-94.0367,1021.64,11111222 
TABS,ioos:station:wmo:42046:1,2011-03-02T01:00:00Z,27.8903,-94.0367,1021.59,11111222 
TABS,ioos:station:wmo:42046:1,2011-03-02T01:30:00Z,27.8903,-94.0367,1021.66,11111222 
TABS,ioos:station:wmo:42046:1,2011-03-02T02:00:00Z,27.8903,-94.0367,1021.67,11111222 
TABS,ioos:station:wmo:42046:1,2011-03-02T02:30:00Z,27.8903,-94.0367,1021.8,11111222 
TABS,ioos:station:wmo:42046:1,2011-03-02T03:00:00Z,27.8903,-94.0367,1021.95,11111222 
TABS,ioos:station:wmo:42046:1,2011-03-02T03:30:00Z,27.8903,-94.0367,1021.97,11111222 
TABS,ioos:station:wmo:42046:1,2011-03-02T04:00:00Z,27.8903,-94.0367,1021.67,11111222 
TABS,ioos:station:wmo:42046:1,2011-03-02T04:30:00Z,27.8903,-94.0367,1021.44,11111222 
TABS,ioos:station:wmo:42046:1,2011-03-02T05:00:00Z,27.8903,-94.0367,1021.15,11111222 
TABS,ioos:station:wmo:42046:1,2011-03-02T05:30:00Z,27.8903,-94.0367,1020.87,11111222 
TABS,ioos:station:wmo:42046:1,2011-03-02T06:00:00Z,27.8903,-94.0367,1020.93,11111222 
TABS,ioos:station:wmo:42046:1,2011-03-02T06:30:00Z,27.8903,-94.0367,1020.62,11111222 
TABS,ioos:station:wmo:42046:1,2011-03-02T07:00:00Z,27.8903,-94.0367,1020.57,11111222 
TABS,ioos:station:wmo:42046:1,2011-03-02T07:30:00Z,27.8903,-94.0367,1020.41,11111222 
TABS,ioos:station:wmo:42046:1,2011-03-02T08:00:00Z,27.8903,-94.0367,1020.25,11111222 
TABS,ioos:station:wmo:42046:1,2011-03-02T08:30:00Z,27.8903,-94.0367,1020.37,11111222 
TABS,ioos:station:wmo:42046:1,2011-03-02T09:00:00Z,27.8903,-94.0367,1020.16,11111222 
TABS,ioos:station:wmo:42046:1,2011-03-02T09:30:00Z,27.8903,-94.0367,1020.03,11111222 
TABS,ioos:station:wmo:42046:1,2011-03-02T10:00:00Z,27.8903,-94.0367,1019.93,11111222 
TABS,ioos:station:wmo:42046:1,2011-03-02T10:30:00Z,27.8903,-94.0367,1020.0,11111222 
TABS,ioos:station:wmo:42046:1,2011-03-02T11:00:00Z,27.8903,-94.0367,1020.09,11111222 
TABS,ioos:station:wmo:42046:1,2011-03-02T11:30:00Z,27.8903,-94.0367,1020.33,11111222 
TABS,ioos:station:wmo:42046:1,2011-03-02T12:00:00Z,27.8903,-94.0367,1020.48,11111222 
TABS,ioos:station:wmo:42046:1,2011-03-02T12:30:00Z,27.8903,-94.0367,1020.72,11111222 
TABS,ioos:station:wmo:42046:1,2011-03-02T13:00:00Z,27.8903,-94.0367,1020.96,11111222 
TABS,ioos:station:wmo:42046:1,2011-03-02T13:30:00Z,27.8903,-94.0367,1021.3,11111222 
TABS,ioos:station:wmo:42046:1,2011-03-02T14:00:00Z,27.8903,-94.0367,1021.46,11111222 
TABS,ioos:station:wmo:42046:1,2011-03-02T14:30:00Z,27.8903,-94.0367,1021.68,11111222 
TABS,ioos:station:wmo:42046:1,2011-03-02T15:00:00Z,27.8903,-94.0367,1022.02,11111222 
TABS,ioos:station:wmo:42046:1,2011-03-02T15:30:00Z,27.8903,-94.0367,1021.98,11111222 
TABS,ioos:station:wmo:42046:1,2011-03-02T16:00:00Z,27.8903,-94.0367,1022.27,11111222 
TABS,ioos:station:wmo:42046:1,2011-03-02T16:30:00Z,27.8903,-94.0367,1022.25,11111222 
TABS,ioos:station:wmo:42046:1,2011-03-02T17:00:00Z,27.8903,-94.0367,1022.09,11111222 
TABS,ioos:station:wmo:42046:1,2011-03-02T17:30:00Z,27.8903,-94.0367,1021.84,11111222 
TABS,ioos:station:wmo:42046:1,2011-03-02T18:00:00Z,27.8903,-94.0367,1021.59,11111222 
TABS,ioos:station:wmo:42046:1,2011-03-02T18:30:00Z,27.8903,-94.0367,1021.2,11111222 
TABS,ioos:station:wmo:42046:1,2011-03-02T19:00:00Z,27.8903,-94.0367,1020.42,11111222 
TABS,ioos:station:wmo:42046:1,2011-03-02T19:30:00Z,27.8903,-94.0367,1020.19,11111222 
TABS,ioos:station:wmo:42046:1,2011-03-02T20:00:00Z,27.8903,-94.0367,1019.91,11111222 
TABS,ioos:station:wmo:42046:1,2011-03-02T20:30:00Z,27.8903,-94.0367,1019.71,11111222 
TABS,ioos:station:wmo:42046:1,2011-03-02T21:00:00Z,27.8903,-94.0367,1019.13,11111222 
TABS,ioos:station:wmo:42046:1,2011-03-02T21:30:00Z,27.8903,-94.0367,1018.86,11111222 
TABS,ioos:station:wmo:42046:1,2011-03-02T22:00:00Z,27.8903,-94.0367,1018.68,11111222 
TABS,ioos:station:wmo:42046:1,2011-03-02T22:30:00Z,27.8903,-94.0367,1018.37,11111222 
TABS,ioos:station:wmo:42046:1,2011-03-02T23:00:00Z,27.8903,-94.0367,1018.35,11111222 
TABS,ioos:station:wmo:42046:1,2011-03-02T23:30:00Z,27.8903,-94.0367,1018.34,11111222 
TABS,ioos:station:wmo:42046:1,2011-03-03T00:00:00Z,27.8903,-94.0367,1018.34,11111222 
TABS,ioos:station:wmo:42046:1,2011-03-03T00:30:00Z,27.8903,-94.0367,1018.52,11111222 
TABS,ioos:station:wmo:42046:1,2011-03-03T01:00:00Z,27.8903,-94.0367,1018.56,11111222 
TABS,ioos:station:wmo:42046:1,2011-03-03T01:30:00Z,27.8903,-94.0367,1018.92,11111222 
TABS,ioos:station:wmo:42046:1,2011-03-03T02:00:00Z,27.8903,-94.0367,1019.33,11111222 
TABS,ioos:station:wmo:42046:1,2011-03-03T02:30:00Z,27.8903,-94.0367,1019.24,11111222 
TABS,ioos:station:wmo:42046:1,2011-03-03T03:00:00Z,27.8903,-94.0367,1019.42,11111222 
TABS,ioos:station:wmo:42046:1,2011-03-03T03:30:00Z,27.8903,-94.0367,1019.21,11111222 
TABS,ioos:station:wmo:42046:1,2011-03-03T04:00:00Z,27.8903,-94.0367,1019.36,11111222 
TABS,ioos:station:wmo:42046:1,2011-03-03T04:30:00Z,27.8903,-94.0367,1019.25,11111222 
TABS,ioos:station:wmo:42046:1,2011-03-03T05:00:00Z,27.8903,-94.0367,1019.22,11111222 
TABS,ioos:station:wmo:42046:1,2011-03-03T05:30:00Z,27.8903,-94.0367,1018.99,11111222 
TABS,ioos:station:wmo:42046:1,2011-03-03T06:00:00Z,27.8903,-94.0367,1018.74,11111222 
TABS,ioos:station:wmo:42046:1,2011-03-03T06:30:00Z,27.8903,-94.0367,1018.48,11111222 
TABS,ioos:station:wmo:42046:1,2011-03-03T07:00:00Z,27.8903,-94.0367,1018.22,11111222 
TABS,ioos:station:wmo:42046:1,2011-03-03T07:30:00Z,27.8903,-94.0367,1017.82,11111222 
TABS,ioos:station:wmo:42046:1,2011-03-03T08:00:00Z,27.8903,-94.0367,1017.69,11111222 
TABS,ioos:station:wmo:42046:1,2011-03-03T08:30:00Z,27.8903,-94.0367,1017.56,11111222 
TABS,ioos:station:wmo:42046:1,2011-03-03T09:00:00Z,27.8903,-94.0367,1017.31,11111222 
TABS,ioos:station:wmo:42046:1,2011-03-03T09:30:00Z,27.8903,-94.0367,1017.2,11111222 
TABS,ioos:station:wmo:42046:1,2011-03-03T10:00:00Z,27.8903,-94.0367,1017.0,11111222 
TABS,ioos:station:wmo:42046:1,2011-03-03T10:30:00Z,27.8903,-94.0367,1017.02,11111222 
TABS,ioos:station:wmo:42046:1,2011-03-03T11:00:00Z,27.8903,-94.0367,1017.06,11111222 
TABS,ioos:station:wmo:42046:1,2011-03-03T11:30:00Z,27.8903,-94.0367,1016.96,11111222 
TABS,ioos:station:wmo:42046:1,2011-03-03T12:00:00Z,27.8903,-94.0367,1017.06,11111222 
TABS,ioos:station:wmo:42046:1,2011-03-03T12:30:00Z,27.8903,-94.0367,1017.43,11111222 
TABS,ioos:station:wmo:42046:1,2011-03-03T13:00:00Z,27.8903,-94.0367,1017.78,11111222 
TABS,ioos:station:wmo:42046:1,2011-03-03T13:30:00Z,27.8903,-94.0367,1018.19,11111222 
TABS,ioos:station:wmo:42046:1,2011-03-03T14:00:00Z,27.8903,-94.0367,1018.22,11111222 
TABS,ioos:station:wmo:42046:1,2011-03-03T14:30:00Z,27.8903,-94.0367,1018.44,11111222 
TABS,ioos:station:wmo:42046:1,2011-03-03T15:00:00Z,27.8903,-94.0367,1018.55,11111222 
TABS,ioos:station:wmo:42046:1,2011-03-03T15:30:00Z,27.8903,-94.0367,1018.63,11111222 
TABS,ioos:station:wmo:42046:1,2011-03-03T16:00:00Z,27.8903,-94.0367,1018.43,11111222 
TABS,ioos:station:wmo:42046:1,2011-03-03T16:30:00Z,27.8903,-94.0367,1018.53,11111222 
TABS,ioos:station:wmo:42046:1,2011-03-03T17:00:00Z,27.8903,-94.0367,1018.34,11111222 
TABS,ioos:station:wmo:42046:1,2011-03-03T17:30:00Z,27.8903,-94.0367,1018.12,11111222 
TABS,ioos:station:wmo:42046:1,2011-03-03T18:00:00Z,27.8903,-94.0367,1017.92,11111222 
TABS,ioos:station:wmo:42046:1,2011-03-03T18:30:00Z,27.8903,-94.0367,1017.48,11111222 
TABS,ioos:station:wmo:42046:1,2011-03-03T19:00:00Z,27.8903,-94.0367,1016.76,11111222 
TABS,ioos:station:wmo:42046:1,2011-03-03T19:30:00Z,27.8903,-94.0367,1016.39,11111222 
TABS,ioos:station:wmo:42046:1,2011-03-03T20:00:00Z,27.8903,-94.0367,1016.02,11111222 
TABS,ioos:station:wmo:42046:1,2011-03-03T20:30:00Z,27.8903,-94.0367,1015.66,11111222 
TABS,ioos:station:wmo:42046:1,2011-03-03T21:00:00Z,27.8903,-94.0367,1015.48,11111222 
TABS,ioos:station:wmo:42046:1,2011-03-03T21:30:00Z,27.8903,-94.0367,1015.37,11111222 
TABS,ioos:station:wmo:42046:1,2011-03-03T22:00:00Z,27.8903,-94.0367,1015.29,11111222 
TABS,ioos:station:wmo:42046:1,2011-03-03T22:30:00Z,27.8903,-94.0367,1015.23,11111222 
TABS,ioos:station:wmo:42046:1,2011-03-03T23:00:00Z,27.8903,-94.0367,1015.32,11111222 
TABS,ioos:station:wmo:42046:1,2011-03-03T23:30:00Z,27.8903,-94.0367,1015.37,11111222 
TABS,ioos:station:wmo:42046:1,2011-03-04T00:00:00Z,27.8903,-94.0367,1015.3,11111222 
TABS,ioos:station:wmo:42046:1,2011-03-04T00:30:00Z,27.8903,-94.0367,1015.34,11111222 
TABS,ioos:station:wmo:42046:1,2011-03-04T01:00:00Z,27.8903,-94.0367,1015.38,11111222 
TABS,ioos:station:wmo:42046:1,2011-03-04T01:30:00Z,27.8903,-94.0367,1015.43,11111222 
TABS,ioos:station:wmo:42046:1,2011-03-04T02:00:00Z,27.8903,-94.0367,1015.62,11111222 
TABS,ioos:station:wmo:42046:1,2011-03-04T02:30:00Z,27.8903,-94.0367,1015.71,11111222 
TABS,ioos:station:wmo:42046:1,2011-03-04T03:00:00Z,27.8903,-94.0367,1015.62,11111222 
TABS,ioos:station:wmo:42046:1,2011-03-04T03:30:00Z,27.8903,-94.0367,1015.83,11111222 
TABS,ioos:station:wmo:42046:1,2011-03-04T04:00:00Z,27.8903,-94.0367,1015.74,11111222 
TABS,ioos:station:wmo:42046:1,2011-03-04T04:30:00Z,27.8903,-94.0367,1015.5,11111222 
TABS,ioos:station:wmo:42046:1,2011-03-04T05:00:00Z,27.8903,-94.0367,1015.25,11111222 
TABS,ioos:station:wmo:42046:1,2011-03-04T05:30:00Z,27.8903,-94.0367,1014.85,11111222 
TABS,ioos:station:wmo:42046:1,2011-03-04T06:00:00Z,27.8903,-94.0367,1014.66,11111222 
TABS,ioos:station:wmo:42046:1,2011-03-04T06:30:00Z,27.8903,-94.0367,1014.43,11111222 
TABS,ioos:station:wmo:42046:1,2011-03-04T07:00:00Z,27.8903,-94.0367,1014.12,11111222 
TABS,ioos:station:wmo:42046:1,2011-03-04T07:30:00Z,27.8903,-94.0367,1014.02,11111222 
TABS,ioos:station:wmo:42046:1,2011-03-04T08:00:00Z,27.8903,-94.0367,1013.7,11111222 
TABS,ioos:station:wmo:42046:1,2011-03-04T08:30:00Z,27.8903,-94.0367,1013.4,11111222 
TABS,ioos:station:wmo:42046:1,2011-03-04T09:00:00Z,27.8903,-94.0367,1012.91,11111222 
TABS,ioos:station:wmo:42046:1,2011-03-04T09:30:00Z,27.8903,-94.0367,1012.86,11111222 
TABS,ioos:station:wmo:42046:1,2011-03-04T10:00:00Z,27.8903,-94.0367,1012.48,11111222 
TABS,ioos:station:wmo:42046:1,2011-03-04T10:30:00Z,27.8903,-94.0367,1012.66,11111222 
TABS,ioos:station:wmo:42046:1,2011-03-04T11:00:00Z,27.8903,-94.0367,1012.56,11111222 
TABS,ioos:station:wmo:42046:1,2011-03-04T11:30:00Z,27.8903,-94.0367,1013.07,11111222 
TABS,ioos:station:wmo:42046:1,2011-03-04T12:00:00Z,27.8903,-94.0367,1013.28,11111222 
TABS,ioos:station:wmo:42046:1,2011-03-04T12:30:00Z,27.8903,-94.0367,1013.5,11111222 
TABS,ioos:station:wmo:42046:1,2011-03-04T13:00:00Z,27.8903,-94.0367,1013.63,11111222 
TABS,ioos:station:wmo:42046:1,2011-03-04T13:30:00Z,27.8903,-94.0367,1014.01,11111222 
TABS,ioos:station:wmo:42046:1,2011-03-04T14:00:00Z,27.8903,-94.0367,1014.19,11111222 
TABS,ioos:station:wmo:42046:1,2011-03-04T14:30:00Z,27.8903,-94.0367,1014.43,11111222 
TABS,ioos:station:wmo:42046:1,2011-03-04T15:00:00Z,27.8903,-94.0367,1014.63,11111222 
TABS,ioos:station:wmo:42046:1,2011-03-04T15:30:00Z,27.8903,-94.0367,1015.3,11111222 
TABS,ioos:station:wmo:42046:1,2011-03-04T16:00:00Z,27.8903,-94.0367,1015.38,11111222 
TABS,ioos:station:wmo:42046:1,2011-03-04T16:30:00Z,27.8903,-94.0367,1015.64,11111222 
TABS,ioos:station:wmo:42046:1,2011-03-04T17:00:00Z,27.8903,-94.0367,1015.21,11111222 
TABS,ioos:station:wmo:42046:1,2011-03-04T17:30:00Z,27.8903,-94.0367,1015.36,11111222 
TABS,ioos:station:wmo:42046:1,2011-03-04T18:00:00Z,27.8903,-94.0367,1015.19,11111222 
TABS,ioos:station:wmo:42046:1,2011-03-04T18:30:00Z,27.8903,-94.0367,1014.78,11111222 
TABS,ioos:station:wmo:42046:1,2011-03-04T19:00:00Z,27.8903,-94.0367,1014.31,11111222 
TABS,ioos:station:wmo:42046:1,2011-03-04T19:30:00Z,27.8903,-94.0367,1013.99,11111222 
TABS,ioos:station:wmo:42046:1,2011-03-04T20:00:00Z,27.8903,-94.0367,1013.5,11111222 
TABS,ioos:station:wmo:42046:1,2011-03-04T20:30:00Z,27.8903,-94.0367,1013.78,11111222 
TABS,ioos:station:wmo:42046:1,2011-03-04T21:00:00Z,27.8903,-94.0367,1013.26,11111222 
TABS,ioos:station:wmo:42046:1,2011-03-04T21:30:00Z,27.8903,-94.0367,1013.32,11111222 
TABS,ioos:station:wmo:42046:1,2011-03-04T22:00:00Z,27.8903,-94.0367,1013.59,11111222 
TABS,ioos:station:wmo:42046:1,2011-03-04T22:30:00Z,27.8903,-94.0367,1013.46,11111222 
TABS,ioos:station:wmo:42046:1,2011-03-04T23:00:00Z,27.8903,-94.0367,1012.87,11111222 
TABS,ioos:station:wmo:42046:1,2011-03-04T23:30:00Z,27.8903,-94.0367,1012.77,11111222 
TABS,ioos:station:wmo:42046:1,2011-03-05T00:00:00Z,27.8903,-94.0367,1012.94,11111222 
TABS,ioos:station:wmo:42046:1,2011-03-05T00:30:00Z,27.8903,-94.0367,1012.92,11111222 
TABS,ioos:station:wmo:42046:1,2011-03-05T01:00:00Z,27.8903,-94.0367,1013.03,11111222 
TABS,ioos:station:wmo:42046:1,2011-03-05T01:30:00Z,27.8903,-94.0367,1013.16,11111222 
TABS,ioos:station:wmo:42046:1,2011-03-05T02:00:00Z,27.8903,-94.0367,1013.09,11111222 
TABS,ioos:station:wmo:42046:1,2011-03-05T02:30:00Z,27.8903,-94.0367,1013.54,11111222 
TABS,ioos:station:wmo:42046:1,2011-03-05T03:00:00Z,27.8903,-94.0367,1013.66,11111222 
TABS,ioos:station:wmo:42046:1,2011-03-05T03:30:00Z,27.8903,-94.0367,1014.1,11111222 
TABS,ioos:station:wmo:42046:1,2011-03-05T04:00:00Z,27.8903,-94.0367,1014.03,11111222 
TABS,ioos:station:wmo:42046:1,2011-03-05T04:30:00Z,27.8903,-94.0367,1014.24,11111222 
TABS,ioos:station:wmo:42046:1,2011-03-05T05:00:00Z,27.8903,-94.0367,1014.49,11111222 
TABS,ioos:station:wmo:42046:1,2011-03-05T05:30:00Z,27.8903,-94.0367,1014.59,11111222 
TABS,ioos:station:wmo:42046:1,2011-03-05T06:00:00Z,27.8903,-94.0367,1014.52,11111222 
TABS,ioos:station:wmo:42046:1,2011-03-05T06:30:00Z,27.8903,-94.0367,1014.1,11111222 
TABS,ioos:station:wmo:42046:1,2011-03-05T07:00:00Z,27.8903,-94.0367,1013.94,11111222 
TABS,ioos:station:wmo:42046:1,2011-03-05T07:30:00Z,27.8903,-94.0367,1013.3,11111222 
TABS,ioos:station:wmo:42046:1,2011-03-05T08:00:00Z,27.8903,-94.0367,1013.01,11111222 
TABS,ioos:station:wmo:42046:1,2011-03-05T08:30:00Z,27.8903,-94.0367,1013.18,11111222 
TABS,ioos:station:wmo:42046:1,2011-03-05T09:00:00Z,27.8903,-94.0367,1013.07,11111222 
TABS,ioos:station:wmo:42046:1,2011-03-05T09:30:00Z,27.8903,-94.0367,1013.24,11111222 
TABS,ioos:station:wmo:42046:1,2011-03-05T10:00:00Z,27.8903,-94.0367,1013.12,11111222 
TABS,ioos:station:wmo:42046:1,2011-03-05T10:30:00Z,27.8903,-94.0367,1012.91,11111222 
TABS,ioos:station:wmo:42046:1,2011-03-05T11:00:00Z,27.8903,-94.0367,1013.29,11111222 
TABS,ioos:station:wmo:42046:1,2011-03-05T11:30:00Z,27.8903,-94.0367,1013.83,11111222 
TABS,ioos:station:wmo:42046:1,2011-03-05T12:00:00Z,27.8903,-94.0367,1013.96,11111222 
TABS,ioos:station:wmo:42046:1,2011-03-05T12:30:00Z,27.8903,-94.0367,1013.93,11111222 
TABS,ioos:station:wmo:42046:1,2011-03-05T13:00:00Z,27.8903,-94.0367,1013.72,11111222 
TABS,ioos:station:wmo:42046:1,2011-03-05T13:30:00Z,27.8903,-94.0367,1013.79,11111222 
TABS,ioos:station:wmo:42046:1,2011-03-05T14:00:00Z,27.8903,-94.0367,1014.21,11111222 
TABS,ioos:station:wmo:42046:1,2011-03-05T14:30:00Z,27.8903,-94.0367,1014.36,11111222 
TABS,ioos:station:wmo:42046:1,2011-03-05T15:00:00Z,27.8903,-94.0367,1014.28,11111222 
TABS,ioos:station:wmo:42046:1,2011-03-05T15:30:00Z,27.8903,-94.0367,1014.41,11111222 
TABS,ioos:station:wmo:42046:1,2011-03-05T16:00:00Z,27.8903,-94.0367,1014.66,11111222 
TABS,ioos:station:wmo:42046:1,2011-03-05T16:30:00Z,27.8903,-94.0367,1014.66,11111222 
TABS,ioos:station:wmo:42046:1,2011-03-05T17:00:00Z,27.8903,-94.0367,1014.89,11111222 
TABS,ioos:station:wmo:42046:1,2011-03-05T17:30:00Z,27.8903,-94.0367,1015.04,11111222 
TABS,ioos:station:wmo:42046:1,2011-03-05T18:00:00Z,27.8903,-94.0367,1014.09,11111222 
TABS,ioos:station:wmo:42046:1,2011-03-05T18:30:00Z,27.8903,-94.0367,1014.83,11111222 
TABS,ioos:station:wmo:42046:1,2011-03-05T19:00:00Z,27.8903,-94.0367,1015.07,11111222 
TABS,ioos:station:wmo:42046:1,2011-03-05T19:30:00Z,27.8903,-94.0367,1013.23,11111222 
TABS,ioos:station:wmo:42046:1,2011-03-05T20:00:00Z,27.8903,-94.0367,1013.85,11111222 
TABS,ioos:station:wmo:42046:1,2011-03-05T20:30:00Z,27.8903,-94.0367,1014.98,11111222 
TABS,ioos:station:wmo:42046:1,2011-03-05T21:00:00Z,27.8903,-94.0367,1015.28,11111222 
TABS,ioos:station:wmo:42046:1,2011-03-05T21:30:00Z,27.8903,-94.0367,1015.65,11111222 
TABS,ioos:station:wmo:42046:1,2011-03-05T22:00:00Z,27.8903,-94.0367,1015.91,11111222 
TABS,ioos:station:wmo:42046:1,2011-03-05T22:30:00Z,27.8903,-94.0367,1015.62,11111222 
TABS,ioos:station:wmo:42046:1,2011-03-05T23:00:00Z,27.8903,-94.0367,1016.4,11111222 
TABS,ioos:station:wmo:42046:1,2011-03-05T23:30:00Z,27.8903,-94.0367,1017.26,11111222 
TABS,ioos:station:wmo:42046:1,2011-03-06T00:00:00Z,27.8903,-94.0367,1017.23,11111222 
TABS,ioos:station:wmo:42046:1,2011-03-06T00:30:00Z,27.8903,-94.0367,1017.2,11111222 
TABS,ioos:station:wmo:42046:1,2011-03-06T01:00:00Z,27.8903,-94.0367,1017.84,11111222 
TABS,ioos:station:wmo:42046:1,2011-03-06T01:30:00Z,27.8903,-94.0367,1018.6,11111222 
TABS,ioos:station:wmo:42046:1,2011-03-06T02:00:00Z,27.8903,-94.0367,1019.1,11111222 
TABS,ioos:station:wmo:42046:1,2011-03-06T02:30:00Z,27.8903,-94.0367,1019.18,11111222 
TABS,ioos:station:wmo:42046:1,2011-03-06T03:00:00Z,27.8903,-94.0367,1019.72,11111222 
TABS,ioos:station:wmo:42046:1,2011-03-06T03:30:00Z,27.8903,-94.0367,1019.92,11111222 
TABS,ioos:station:wmo:42046:1,2011-03-06T04:00:00Z,27.8903,-94.0367,1020.56,11111222 
TABS,ioos:station:wmo:42046:1,2011-03-06T04:30:00Z,27.8903,-94.0367,1020.2,11111222 
TABS,ioos:station:wmo:42046:1,2011-03-06T05:00:00Z,27.8903,-94.0367,1020.17,11111222 
TABS,ioos:station:wmo:42046:1,2011-03-06T05:30:00Z,27.8903,-94.0367,1020.26,11111222 
TABS,ioos:station:wmo:42046:1,2011-03-06T06:00:00Z,27.8903,-94.0367,1020.64,11111222 
TABS,ioos:station:wmo:42046:1,2011-03-06T06:30:00Z,27.8903,-94.0367,1019.64,11111222 
TABS,ioos:station:wmo:42046:1,2011-03-06T07:00:00Z,27.8903,-94.0367,1019.96,11111222 
TABS,ioos:station:wmo:42046:1,2011-03-06T07:30:00Z,27.8903,-94.0367,1019.98,11111222 
TABS,ioos:station:wmo:42046:1,2011-03-06T08:00:00Z,27.8903,-94.0367,1019.71,11111222 
TABS,ioos:station:wmo:42046:1,2011-03-06T08:30:00Z,27.8903,-94.0367,1019.57,11111222 
TABS,ioos:station:wmo:42046:1,2011-03-06T09:00:00Z,27.8903,-94.0367,1019.92,11111222 
TABS,ioos:station:wmo:42046:1,2011-03-06T09:30:00Z,27.8903,-94.0367,1020.31,11111222 
TABS,ioos:station:wmo:42046:1,2011-03-06T10:00:00Z,27.8903,-94.0367,1020.02,11111222 
TABS,ioos:station:wmo:42046:1,2011-03-06T10:30:00Z,27.8903,-94.0367,1020.3,11111222 
TABS,ioos:station:wmo:42046:1,2011-03-06T11:00:00Z,27.8903,-94.0367,1020.87,11111222 
TABS,ioos:station:wmo:42046:1,2011-03-06T11:30:00Z,27.8903,-94.0367,1020.84,11111222 
TABS,ioos:station:wmo:42046:1,2011-03-06T12:00:00Z,27.8903,-94.0367,1020.82,11111222 
TABS,ioos:station:wmo:42046:1,2011-03-06T12:30:00Z,27.8903,-94.0367,1021.26,11111222 
TABS,ioos:station:wmo:42046:1,2011-03-06T13:00:00Z,27.8903,-94.0367,1021.65,11111222 
TABS,ioos:station:wmo:42046:1,2011-03-06T13:30:00Z,27.8903,-94.0367,1021.98,11111222 
TABS,ioos:station:wmo:42046:1,2011-03-06T14:00:00Z,27.8903,-94.0367,1022.43,11111222 
TABS,ioos:station:wmo:42046:1,2011-03-06T14:30:00Z,27.8903,-94.0367,1022.54,11111222 
TABS,ioos:station:wmo:42046:1,2011-03-06T15:00:00Z,27.8903,-94.0367,1023.03,11111222 
TABS,ioos:station:wmo:42046:1,2011-03-06T15:30:00Z,27.8903,-94.0367,1023.21,11111222 
TABS,ioos:station:wmo:42046:1,2011-03-06T16:00:00Z,27.8903,-94.0367,1023.14,11111222 
TABS,ioos:station:wmo:42046:1,2011-03-06T16:30:00Z,27.8903,-94.0367,1022.95,11111222 
TABS,ioos:station:wmo:42046:1,2011-03-06T17:00:00Z,27.8903,-94.0367,1022.96,11111222 
TABS,ioos:station:wmo:42046:1,2011-03-06T17:30:00Z,27.8903,-94.0367,1022.76,11111222 
TABS,ioos:station:wmo:42046:1,2011-03-06T18:00:00Z,27.8903,-94.0367,1022.44,11111222 
TABS,ioos:station:wmo:42046:1,2011-03-06T18:30:00Z,27.8903,-94.0367,1022.17,11111222 